Theta_e
346 346 350 353 352 344 340 350 346 348 347 345 343 342 341 342 344 342 346 342 341 340 341 341 340 334 331 331 330 330 332 335 334 329 330 333 341 342 342 342 336 340 340 337 332 329 340 333 325
345 349 352 354 352 339 340 340 346 345 347 344 346 344 348 351 347 346 345 344 341 340 341 341 340 340 336 331 330 330 331 335 333 330 329 335 341 340 341 340 341 341 338 342 325 324 329 337 326
345 352 352 355 355 340 342 343 346 346 347 347 348 347 348 348 346 345 345 346 341 340 340 340 340 338 340 338 334 332 333 335 334 330 329 331 332 331 333 341 337 336 339 341 324 328 339 332 328
347 352 354 357 355 351 339 342 345 346 346 347 348 348 348 349 345 346 347 347 343 341 341 340 339 335 337 338 337 335 335 335 334 332 332 332 336 339 330 339 334 337 341 330 324 336 335 332 336
352 349 347 350 348 348 337 343 345 345 345 348 347 348 349 348 344 345 346 347 345 340 341 339 337 333 334 336 336 336 335 335 336 337 335 332 336 331 332 338 337 337 342 326 327 333 340 341 339
346 346 345 346 346 336 338 343 344 344 347 348 347 347 349 348 345 345 343 341 340 339 338 336 334 332 333 334 335 335 336 336 338 339 339 339 339 342 339 331 333 333 334 327 330 331 341 340 340
353 351 352 353 341 338 337 344 343 345 348 347 346 345 348 349 347 342 340 336 335 336 335 333 332 332 333 334 334 336 336 336 337 338 338 339 340 343 340 339 334 336 339 325 328 330 335 338 339
355 347 354 349 347 345 337 342 341 346 347 347 343 346 348 349 348 343 337 335 334 335 334 332 332 332 332 333 334 335 337 336 337 343 337 344 343 343 340 339 340 334 336 325 324 330 333 336 339
356 351 352 351 350 346 338 337 341 345 348 346 345 346 340 346 348 346 337 335 335 336 335 333 332 332 333 332 333 334 337 338 337 340 336 338 337 337 338 339 339 341 334 331 327 327 329 332 337
347 346 349 345 345 344 343 337 340 344 348 348 347 346 341 346 349 348 341 339 340 343 340 337 334 333 333 333 333 333 335 338 340 337 337 337 337 337 337 338 338 339 340 338 332 331 330 327 329
349 348 343 343 342 338 336 336 339 341 347 347 347 346 342 347 349 349 346 345 346 347 343 342 338 335 334 335 334 334 335 337 338 338 338 337 337 338 338 337 339 339 341 342 339 333 329 327 329
340 344 344 336 331 325 331 336 337 341 343 342 345 345 341 347 348 347 347 346 347 347 346 345 341 337 336 336 336 335 335 336 337 337 336 337 336 336 338 338 341 341 341 338 339 334 333 328 329
333 333 335 330 326 326 327 336 338 339 340 341 344 345 341 342 345 346 344 345 346 348 349 348 345 343 338 336 337 337 336 336 336 335 338 342 340 338 339 340 343 342 342 342 338 337 336 333 330
337 332 329 326 325 327 337 339 339 339 339 341 342 345 340 341 342 344 346 345 346 348 350 348 348 347 341 336 335 335 341 341 336 335 336 343 342 337 338 339 341 342 342 344 341 336 336 337 333
331 323 323 323 325 326 329 332 340 341 341 341 345 344 341 340 342 342 341 342 343 347 349 348 348 348 346 340 338 339 346 342 343 336 343 344 344 342 337 338 341 342 342 342 343 337 342 339 338
322 322 327 325 324 326 325 324 326 330 333 344 345 343 344 343 342 342 340 339 342 344 347 348 346 348 347 344 340 341 340 340 342 347 345 343 342 344 343 339 338 338 339 341 344 342 343 343 342
318 325 323 323 324 324 324 323 323 325 335 344 346 345 345 345 344 343 341 338 341 340 344 345 346 347 348 347 346 345 346 340 340 344 344 343 345 344 344 342 340 340 340 339 341 343 342 343 344
327 321 321 321 323 322 322 321 321 323 334 342 345 346 346 346 344 344 340 339 341 342 345 346 346 346 348 348 348 348 347 347 343 345 346 345 343 344 344 343 343 343 343 343 341 341 342 341 342
324 321 322 321 322 322 320 320 321 322 331 340 343 345 346 345 346 345 343 339 342 344 346 347 347 347 348 348 348 349 350 347 346 346 346 345 344 341 344 344 344 344 344 344 344 340 341 342 340
321 321 320 319 320 320 319 321 321 320 330 338 341 343 345 345 346 346 344 342 342 346 347 347 348 348 348 348 348 349 349 346 344 345 345 341 341 342 343 346 345 345 346 343 343 344 340 342 342
323 321 321 321 321 320 320 319 320 320 325 333 342 343 343 344 344 345 345 343 343 346 348 347 348 348 348 348 349 349 350 349 347 347 347 346 344 342 344 345 346 346 344 342 343 344 342 342 340
328 323 323 323 321 322 320 322 319 319 319 320 332 342 343 343 343 344 345 345 344 346 347 349 348 349 348 348 349 350 350 348 349 347 347 347 346 343 344 343 343 342 342 341 342 343 342 340 341
327 324 323 323 319 319 319 317 318 317 320 319 318 327 330 329 341 343 344 344 345 345 347 348 349 348 348 348 349 350 350 350 345 344 346 342 345 343 343 345 345 344 342 340 341 341 341 341 341
324 321 317 313 313 317 318 318 317 318 320 320 322 324 328 329 331 338 343 344 345 346 347 348 349 348 348 348 349 351 351 347 345 345 343 345 344 341 343 345 346 345 342 340 341 341 343 342 341
319 318 318 319 318 320 315 316 318 319 318 319 321 325 325 325 329 335 341 343 344 345 346 347 348 348 348 348 350 351 352 349 345 344 342 342 344 345 345 345 344 344 342 341 340 340 341 342 341
318 317 320 321 320 321 316 320 321 319 319 321 322 326 328 328 330 339 340 343 344 345 345 346 347 348 348 348 350 352 351 349 347 341 340 339 341 348 347 346 344 344 343 340 340 340 341 341 340
320 320 319 318 313 317 317 317 319 320 321 324 335 331 327 330 335 341 343 344 345 345 345 346 347 348 348 349 351 353 351 348 340 338 338 337 341 345 345 345 346 344 342 341 340 341 340 340 340
320 319 320 317 321 320 319 319 320 321 323 336 351 342 342 341 342 344 345 346 347 347 347 348 348 347 348 350 352 353 350 339 330 332 335 341 346 344 342 343 342 342 341 341 340 340 339 338 333
319 318 316 315 317 321 320 321 317 320 333 343 353 353 354 349 346 345 347 348 348 349 349 350 349 349 349 351 353 351 339 338 331 332 342 345 343 340 340 340 340 341 341 340 339 338 338 338 338
318 317 318 321 320 314 316 320 328 338 336 353 358 356 353 350 351 350 349 349 350 351 352 352 352 351 351 352 354 342 340 338 340 343 345 342 335 335 337 339 338 339 340 339 339 340 339 337 338
Wind_Speed
9 6 3 0 2 2 2 1 0 3 1 1 13 5 5 4 4 3 13 24 22 23 24 22 19 19 18 18 16 15 13 10 9 10 11 13 13 12 11 11 13 12 11 11 11 12 13 14 13
8 5 1 2 3 3 4 3 3 3 4 13 8 9 3 1 3 10 26 22 23 22 24 21 18 17 17 18 17 15 13 11 10 9 10 12 13 13 12 12 12 12 12 11 11 12 15 15 15
6 3 2 1 2 2 3 2 3 7 19 6 4 5 3 4 7 23 23 22 24 22 22 21 18 17 17 16 16 15 13 11 10 10 11 11 11 11 11 10 12 12 13 12 11 15 13 17 18
5 1 3 1 3 4 4 5 4 8 5 3 11 4 5 6 18 14 21 22 24 23 23 20 19 18 18 17 16 16 14 12 11 11 12 11 11 9 10 12 12 14 12 11 13 17 14 17 17
5 1 2 2 5 3 2 11 13 6 3 7 8 4 4 8 12 13 17 22 24 24 23 21 19 18 18 17 16 15 14 12 11 11 11 11 10 10 11 12 11 14 11 11 14 16 18 19 19
3 0 3 4 6 2 3 9 11 4 7 8 8 7 6 14 14 12 17 22 23 23 22 20 18 17 17 17 16 15 14 13 11 12 11 10 10 10 9 10 10 11 11 11 16 17 18 19 18
1 1 1 2 6 5 4 15 7 5 5 6 15 6 6 16 16 13 18 21 23 23 22 20 19 18 17 17 16 15 15 14 12 11 10 10 10 9 9 9 8 11 9 12 17 18 19 18 15
1 2 4 1 3 5 4 20 7 10 8 7 15 6 6 24 22 19 22 22 23 21 20 20 20 19 19 18 16 15 14 14 13 11 12 11 10 9 9 9 10 9 9 11 16 18 18 18 17
1 3 2 3 4 7 2 4 9 7 6 10 14 9 7 29 28 25 27 27 25 22 20 20 20 20 19 19 18 16 15 14 14 13 12 12 9 9 9 9 10 10 10 10 14 17 18 19 18
4 3 7 7 5 7 17 12 13 6 7 13 13 12 17 32 33 30 32 31 28 24 21 21 21 21 20 19 18 17 16 15 14 13 12 10 9 9 9 10 10 10 11 11 12 15 16 18 19
8 6 6 10 20 21 16 11 15 11 6 21 23 22 31 36 36 32 30 29 26 23 22 21 20 21 21 21 20 18 16 15 14 13 11 10 9 11 13 13 13 12 12 11 12 14 16 17 19
5 15 15 11 12 7 6 11 11 19 22 6 27 23 34 38 38 36 32 31 29 27 22 20 19 22 22 21 20 18 17 16 16 14 14 12 8 9 13 14 13 13 12 12 12 12 14 16 17
6 5 14 18 16 18 11 11 11 22 35 16 17 28 33 37 36 34 27 27 28 28 24 22 20 20 21 22 19 17 16 18 16 16 16 13 9 6 8 14 14 14 13 11 11 13 14 18 20
8 10 12 13 8 8 3 3 13 23 25 18 20 32 33 36 37 35 34 31 31 28 25 22 21 18 18 21 21 19 17 15 18 18 17 14 11 5 5 13 14 15 15 12 11 14 15 17 19
7 4 7 6 5 3 3 1 7 21 13 24 28 31 40 40 38 38 33 32 29 28 25 24 22 20 17 18 22 21 16 14 14 16 18 13 15 13 9 8 12 14 14 14 12 14 15 16 19
2 2 4 4 1 4 5 7 10 11 20 28 33 38 34 40 40 36 33 31 29 27 29 26 25 22 19 17 18 22 17 15 14 13 15 15 14 14 14 14 12 12 15 17 16 17 19 17 18
6 4 5 9 2 3 3 8 10 16 11 24 30 38 34 39 39 38 36 31 32 28 27 29 28 25 22 19 17 19 21 17 9 11 13 13 16 15 15 16 16 16 17 18 19 20 22 22 20
10 5 4 5 5 6 5 10 8 14 10 24 27 24 34 39 46 42 37 33 32 31 28 26 28 26 26 22 21 20 21 22 21 16 14 15 14 16 16 16 17 18 20 21 21 23 23 21 20
4 4 7 3 4 4 7 8 12 12 11 14 23 26 34 46 39 42 40 35 33 34 33 29 30 27 29 28 26 24 22 21 20 20 18 17 18 18 19 17 17 19 21 22 23 25 26 26 21
5 5 6 6 3 5 8 14 16 5 8 18 23 21 33 27 29 39 44 42 39 36 34 32 32 32 29 28 24 23 19 17 17 17 17 15 17 17 19 17 15 18 20 22 24 27 29 27 23
4 5 4 8 4 4 6 8 7 6 7 11 21 33 33 36 36 37 42 47 44 43 39 33 32 34 31 28 27 26 23 21 20 20 18 19 15 15 15 14 16 19 19 21 22 26 30 28 25
6 9 8 2 2 5 2 8 7 8 7 6 19 29 39 43 40 42 44 45 50 45 43 39 33 35 33 30 28 27 22 20 17 16 17 17 17 15 14 14 14 14 16 17 17 21 28 28 24
11 6 8 4 5 1 3 3 8 4 7 8 12 26 32 33 40 46 48 47 48 44 43 43 39 35 35 32 30 27 21 16 16 17 15 14 16 15 14 14 14 11 13 13 15 20 23 25 24
3 3 5 4 4 1 7 7 5 5 9 7 4 16 22 20 29 38 43 41 46 43 45 43 41 37 34 33 31 28 20 17 20 16 10 6 8 13 15 17 14 13 12 12 15 21 21 23 23
4 5 2 4 3 6 3 3 9 8 11 9 12 25 28 24 21 27 36 41 44 42 44 44 42 40 36 33 29 27 20 19 21 17 11 10 9 10 13 15 16 14 11 10 13 20 24 25 26
7 9 5 5 4 7 4 5 6 11 18 19 21 25 30 27 22 21 30 38 40 39 41 43 41 41 36 32 26 22 18 17 21 13 17 10 11 10 12 12 14 15 14 11 12 17 20 19 20
3 4 4 5 3 2 4 8 9 7 9 4 16 19 19 20 22 23 27 33 36 36 38 41 40 39 33 29 23 20 16 13 8 9 12 6 7 9 9 11 14 14 16 14 12 13 14 15 16
5 4 3 2 2 4 6 5 6 11 11 9 7 7 4 10 19 22 26 29 30 30 34 35 36 34 31 26 23 16 12 11 8 12 11 10 7 9 10 10 9 9 12 14 13 13 14 16 14
2 3 1 5 3 4 4 7 7 10 9 8 4 9 10 15 17 19 20 22 24 24 26 29 30 30 30 27 23 14 15 12 17 16 12 12 9 11 9 8 8 10 11 12 13 14 13 14 16
5 9 7 5 4 3 3 9 2 7 8 7 6 12 12 12 15 19 20 21 21 20 20 21 25 28 28 25 19 15 16 14 15 16 14 11 10 10 10 11 11 12 12 13 13 12 12 12 12
Wind_Direction
162 156 122 129 66 62 292 328 104 123 174 191 135 156 183 135 171 209 146 158 164 162 162 163 162 162 164 166 168 164 159 153 146 143 148 148 139 141 145 147 141 145 140 138 142 137 130 142 142
167 149 104 246 75 44 286 258 215 216 138 127 99 125 107 125 175 145 150 158 165 165 165 163 162 164 165 167 170 171 166 159 152 149 151 150 152 153 148 146 154 151 144 140 137 140 139 130 129
152 89 326 32 114 190 232 221 193 128 139 141 109 96 118 144 153 150 159 160 166 170 167 168 168 171 170 170 171 171 169 164 154 152 151 153 153 152 153 150 156 151 145 144 144 136 136 140 133
146 302 287 7 267 239 198 179 214 150 211 142 124 69 86 1 148 155 164 171 169 173 171 173 173 176 174 173 172 172 171 166 165 155 152 150 150 154 153 153 153 150 149 156 153 149 153 141 143
157 296 351 301 294 280 219 170 178 177 188 132 133 160 85 137 149 156 170 177 176 174 175 177 179 178 177 175 175 176 174 171 166 160 156 156 150 152 154 159 160 157 156 158 160 155 147 147 145
132 91 19 6 317 333 69 186 184 256 170 154 124 120 135 165 164 161 165 167 176 179 177 180 182 182 181 180 178 177 178 172 166 168 164 164 159 158 161 161 163 162 166 165 165 165 160 156 153
171 83 274 271 325 339 160 186 243 201 178 191 155 129 164 183 176 153 158 169 177 183 181 182 183 185 186 186 183 179 177 178 175 169 166 167 169 169 172 166 165 166 164 166 170 173 169 167 165
234 108 332 335 283 264 213 173 249 195 213 186 171 170 188 179 176 164 164 173 181 188 188 189 189 189 189 188 187 184 181 181 179 177 179 176 175 178 179 177 178 173 172 168 172 177 178 179 174
257 49 304 279 308 278 317 189 211 218 186 181 203 207 187 170 178 175 176 179 183 189 194 197 196 195 194 192 189 189 187 186 187 189 187 189 188 191 190 192 187 186 176 171 178 179 182 186 187
152 145 220 210 242 268 272 234 173 176 211 229 200 207 182 174 182 184 185 185 185 187 194 200 202 201 198 196 195 193 193 194 197 195 193 192 199 213 207 205 205 192 190 178 184 187 189 192 193
183 206 219 230 259 267 269 253 192 162 218 222 209 190 176 181 184 190 194 194 190 187 192 198 205 204 203 201 200 198 199 199 202 198 191 192 201 220 222 216 213 203 197 191 198 192 196 200 197
193 239 253 278 281 287 237 252 184 189 218 258 234 203 180 188 193 189 197 201 197 196 195 197 201 206 206 206 204 204 205 203 204 201 197 194 200 227 235 219 215 215 206 202 203 197 195 201 207
219 247 265 273 283 289 298 211 193 228 231 255 214 201 196 194 199 198 197 202 203 202 200 201 203 206 209 207 204 205 206 210 208 206 201 204 212 238 239 210 214 222 219 217 212 209 205 200 208
226 214 258 274 277 290 305 354 174 242 240 230 221 194 200 204 203 200 202 204 206 206 204 204 207 204 208 206 201 197 199 209 211 212 211 210 219 219 216 210 218 224 225 223 225 216 219 212 210
266 259 298 235 164 283 16 345 225 254 259 228 196 202 209 206 206 206 203 203 206 209 208 207 208 205 204 208 205 197 202 208 218 214 211 227 234 227 221 218 217 225 226 228 224 216 213 214 215
310 17 257 269 99 220 142 257 249 239 261 209 195 202 203 204 209 211 209 208 207 210 211 210 211 208 205 204 202 199 204 220 227 223 220 228 234 239 236 233 233 234 238 235 234 225 218 218 219
352 235 242 306 110 129 125 267 274 318 255 214 206 202 205 202 212 214 213 212 208 207 207 211 214 211 209 207 204 206 214 223 221 228 231 231 237 239 245 245 241 240 241 243 240 230 227 227 226
223 225 246 233 304 352 318 271 285 305 273 219 215 208 206 208 215 213 213 213 214 211 208 210 215 214 213 212 212 213 218 229 237 247 250 247 251 251 253 249 250 247 245 243 241 233 228 231 230
187 231 252 241 189 269 267 278 285 306 269 224 222 210 215 221 217 216 215 211 215 216 215 214 217 217 217 215 215 219 224 227 232 245 255 251 251 248 246 246 244 247 250 250 246 237 227 225 229
224 238 263 285 243 177 288 289 282 272 242 227 219 224 223 219 219 221 214 213 214 218 216 217 221 221 219 221 222 228 235 236 238 244 248 250 248 249 241 241 249 253 253 255 250 234 227 224 224
219 210 241 238 309 249 293 304 321 314 283 269 231 237 239 232 226 222 220 215 212 219 219 215 223 223 221 224 223 228 233 238 238 237 243 256 259 259 261 250 257 258 259 261 250 234 225 225 228
244 208 241 242 87 263 136 290 301 278 266 265 238 231 241 243 237 233 224 220 214 217 220 218 223 226 222 225 226 229 234 240 249 254 254 250 255 257 248 249 257 263 271 266 242 225 223 225 227
234 140 210 213 190 47 234 139 270 331 279 237 234 231 241 252 243 240 229 225 224 213 218 220 221 228 225 227 229 230 237 248 257 256 261 257 246 241 242 248 258 277 278 270 235 217 218 220 225
262 147 62 65 108 80 246 168 279 246 227 272 223 221 235 254 248 242 236 228 227 215 221 223 220 224 227 227 230 232 242 248 253 257 249 241 253 245 242 241 256 267 274 271 235 217 215 215 222
119 85 310 334 4 221 148 119 228 256 251 226 247 278 281 279 276 238 225 219 220 212 217 221 219 220 224 227 228 229 235 254 255 245 226 275 254 264 255 256 251 253 262 261 233 218 218 223 231
184 162 164 217 222 272 168 252 263 227 245 259 275 280 282 277 264 235 221 215 217 213 215 219 217 218 220 225 222 222 243 263 270 269 264 245 273 260 270 260 248 247 239 235 229 219 222 230 233
183 166 195 127 36 51 273 291 301 298 297 297 305 306 287 261 230 219 211 212 211 211 215 218 215 216 216 220 214 222 244 263 281 243 238 296 264 259 266 259 257 253 235 223 224 222 226 232 237
157 181 63 18 22 312 300 294 245 293 289 313 334 359 57 191 197 194 199 204 207 210 213 215 215 214 212 211 211 226 236 218 180 193 222 265 253 263 260 251 243 222 211 214 216 214 220 221 224
148 181 355 133 149 179 263 268 223 257 289 297 12 67 89 123 153 173 183 193 199 204 211 213 211 207 206 208 210 224 203 205 202 209 239 240 241 243 241 223 209 200 199 209 210 214 221 231 238
201 201 161 123 243 170 192 260 292 284 290 313 173 126 119 133 151 162 173 182 184 191 201 204 204 201 204 208 212 201 202 201 213 228 230 233 231 224 230 220 199 195 196 200 203 213 227 227 223